Flag for Canada Weather past 2 weeks in Whitehorse, Yukon Territory, Canada

Now
25 °F

Passing clouds.


Feels Like: 19 °F
Forecast: 35 / 46 °F
Wind: 5 mph from Southwest

Location: Withehorse


UV Index: 0 (Low)

Visibility: 40 mi


Pressure: 30.00 "Hg

Humidity: 80%

Dew point: 19 °F

Location of WhitehorseLocation

Historic Weather in Whitehorse

°F

Whitehorse temperature yesterday

Maximum temperature yesterday: 50 °F (at 4:00 PM)
Minimum temperature yesterday: 30 °F (at 4:00 AM)
Average temperature yesterday: 41 °F

Past Weeks' High & Low Weather Summary

 TemperatureHumidityPressure
High50 °F (Apr 20, 4:00 PM)93% (Apr 7, 10:00 AM)30.40 "Hg (Apr 7, 10:00 AM)
Low7 °F (Apr 11, 7:00 AM)18% (Apr 14, 4:00 PM)29.14 "Hg (Apr 7, 6:00 PM)
Average34 °F56%29.80 "Hg
* Reported Apr 6 5:00 AM — Apr 21 5:00 AM, Whitehorse, Weather by CustomWeather, © 2014

Note: Actual official high and low records may vary slightly from our data, if they occured in-between our weather recording intervals... More about our weather records

Advertising

Historic Weather Conditions — Data for Previous 24 hours

 ConditionsComfort  
Time TempWeatherWind HumidityBarometerVisibility
5:00 AM
Apr 21
27 °FPassing clouds.5 mph74%29.99 "Hg40 mi
4:00 AM28 °FClear.3 mph69%29.98 "Hg40 mi
3:00 AM28 °FClear.6 mph69%29.98 "Hg40 mi
2:00 AM30 °FClear.5 mph64%29.97 "Hg40 mi
1:00 AM32 °FClear.6 mph64%29.95 "Hg40 mi
12:00 AM32 °FClear.7 mph64%29.93 "Hg40 mi
11:00 PM
Apr 20
36 °FPassing clouds.6 mph56%29.92 "Hg40 mi
10:00 PM41 °FScattered clouds.7 mph39%29.90 "Hg40 mi
9:00 PM45 °FScattered clouds.5 mph37%29.88 "Hg40 mi
8:00 PM48 °FScattered clouds.9 mph34%29.87 "Hg40 mi
7:00 PM48 °FPassing clouds.12 mph34%29.86 "Hg40 mi
6:00 PM50 °FScattered clouds.9 mph35%29.86 "Hg40 mi
5:00 PM50 °FScattered clouds.14 mph35%29.85 "Hg40 mi
4:00 PM50 °FBroken clouds.16 mph37%29.84 "Hg40 mi
3:00 PM48 °FCloudy.10 mph40%29.84 "Hg40 mi
2:00 PM48 °FBroken clouds.13 mph43%29.83 "Hg40 mi
1:00 PM48 °FBroken clouds.13 mph43%29.81 "Hg40 mi
12:00 PM46 °FCloudy.13 mph46%29.79 "Hg40 mi
11:00 AM45 °FBroken clouds.12 mph49%29.77 "Hg40 mi
10:00 AM41 °FMore clouds than sun.8 mph57%29.76 "Hg40 mi
9:00 AM37 °FMostly cloudy.8 mph56%29.74 "Hg40 mi
8:00 AM34 °FCloudy.No wind56%29.71 "Hg40 mi
7:00 AM32 °FMostly cloudy.No wind64%29.69 "Hg40 mi
6:00 AM32 °FMostly cloudy.No wind64%29.67 "Hg40 mi
Weather by CustomWeather, © 2014

See weather overview